Orbital Elements at Epoch 2459200.5 (2020-Dec-17.0) TDB
Reference: JPL 27 (heliocentric ecliptic J2000)
Element | Value | Uncertainty (1-sigma) | Units |
e | .1521480568980616 | 3.9524e-08 | |
a | 2.432181778193627 | 1.2794e-08 | au |
q | 2.062130046618595 | 1.0239e-07 | au |
i | 12.48831908953819 | 3.0681e-06 | deg |
node | 330.7767923493715 | 1.8617e-05 | deg |
peri | 159.371821005623 | 2.4262e-05 | deg |
M | 299.4623311721894 | 1.5476e-05 | deg |
tp | 2459433.478403535329 (2021-Aug-06.97840354) | 6.0264e-05 | TDB |
period | 1385.455153737071 3.79 | 1.0932e-05 2.993e-08 | d yr |
n | .2598424056014736 | 2.0502e-09 | deg/d |
Q | 2.80223350976866 | 1.474e-08 | au |
|
| | Orbit Determination Parameters
Additional Information
|